Location: LDNL
(36.4545°S, 141.6685°E)
Time: 10:18:08
(UTC+11:00)

Courier 1B - Pass Details

Date: 08 February 2023
Orbit: 962 x 1209 km, 28.3° (Epoch: 21 March)

Event Time Altitude Azimuth Distance (km) Brightness Sun altitude
Rises 22:37:09 0° 321° (NW) 3,739 10.6 -21.7°
Reaches altitude 10° 22:40:22 10° 335° (NNW) 2,831 9.8 -22.2°
Enters shadow 22:42:30 17° 350° (N) 2,375 9.2 -22.6°
